This is the latest recevied weather packets stored in our database for station/object WB6AHC-1. If no packets are shown the sender has not sent any weather packets the latest 10 day(s).
| Time | Temp. | Humidity | Pressure | Rain* | Wind** | Luminosity | Snow |
|---|---|---|---|---|---|---|---|
| 1777255669 | 15.56° C | 55% | - | 0 mm | 0 m/s | - | - |
| 1777254825 | 15.56° C | 57% | - | 0 mm | 0 m/s | - | - |
| 1777253978 | 15.56° C | 56% | - | 0 mm | 0 m/s | - | - |
| 1777253134 | 16.11° C | 57% | - | 0 mm | 0 m/s | - | - |
| 1777252290 | 16.67° C | 56% | - | 0 mm | 0 m/s | - | - |
| 1777251443 | 16.11° C | 58% | - | 0 mm | 0 m/s | - | - |
| 1777250599 | 16.11° C | 57% | - | 0 mm | 0 m/s | - | - |
| 1777249755 | 16.11° C | 57% | - | 0 mm | 0 m/s | - | - |
| 1777248908 | 16.11° C | 57% | - | 0 mm | 0 m/s | - | - |
| 1777248064 | 16.11° C | 56% | - | 0 mm | 0 m/s | - | - |
| 1777247220 | 16.67° C | 55% | - | 0 mm | 0 m/s | - | - |
| 1777246373 | 16.67° C | 55% | - | 0 mm | 0 m/s | - | - |
| 1777245529 | 16.67° C | 54% | - | 0 mm | 0 m/s | - | - |
| 1777244685 | 16.67° C | 55% | - | 0 mm | 0 m/s | - | - |
| 1777243838 | 16.67° C | 55% | - | 0 mm | 0 m/s | - | - |
| 1777242993 | 17.22° C | 55% | - | 0 mm | 0 m/s | - | - |
| 1777242149 | 16.67° C | 55% | - | 0 mm | 0 m/s | - | - |
| 1777241302 | 16.67° C | 55% | - | 0 mm | 0 m/s | - | - |
| 1777240458 | 16.67° C | 57% | - | 0 mm | 0 m/s | - | - |
| 1777239614 | 16.67° C | 58% | - | 0 mm | 0 m/s | - | - |
| 1777238767 | 16.67° C | 59% | - | 0 mm | 0 m/s | - | - |
| 1777237923 | 16.11° C | 64% | - | 0 mm | 0 m/s | - | - |
| 1777237079 | 15.56° C | 63% | - | 0 mm | 0 m/s | - | - |
| 1777236232 | 15.56° C | 63% | - | 0 mm | 0 m/s | - | - |
| 1777235388 | 15.56° C | 67% | - | 0 mm | 0 m/s | - | - |
* Rain latest hour (hover to see other rain measurements)
** Current wind speed in m/s (hover to see current wind gust speed)